Location: Beuerbach
(48.1459°N, 10.9174°E)
Time: 03:04:41
(UTC+00:00)

Geosat - Pass Details

Date: 23 May 2024
Orbit: 760 x 763 km, 108.1° (Epoch: 19 June)

Event Time Altitude Azimuth Distance (km) Brightness Sun altitude
Rises 02:23:54 0° 151° (SSE) 3,211 7.1 -9.1°
Reaches altitude 10° 02:26:09 10° 151° (SSE) 2,290 6.3 -8.8°
Maximum altitude 02:31:09 85° 239° (WSW) 771 4.0 -8.2°
Drops below altitude 10° 02:36:12 10° 330° (NNW) 2,307 6.7 -7.6°
Sets 02:38:30 0° 331° (NNW) 3,238 7.4 -7.3°
